Temp
69 70 67 67 57 51 45 49 52 56 55 59 62 63 59 57 57 50 66 70 71 70 72 72 74 75 75 75 75 75 75 76 76 76 76 76 76 76 76 76 75 75 75 76 76 76 75 75 75
66 74 67 58 50 44 46 49 54 56 60 62 63 59 59 54 62 61 64 71 72 72 72 72 73 75 75 75 75 75 75 75 75 76 76 76 76 76 76 75 75 75 75 76 76 75 75 75 74
69 72 62 54 46 45 48 52 56 58 60 60 59 62 59 58 61 63 68 72 72 71 72 72 72 74 75 74 75 75 75 75 75 75 76 76 75 75 75 75 74 74 75 75 75 74 74 74 73
68 65 60 52 47 50 55 55 56 58 58 63 60 57 59 64 66 69 73 72 71 71 72 70 73 74 75 74 75 75 75 75 75 75 75 76 75 74 74 74 74 74 74 74 74 73 74 74 73
64 59 52 48 49 53 51 56 57 57 57 58 60 56 55 64 69 72 72 73 70 70 70 71 72 73 74 74 74 75 76 75 75 75 75 75 74 73 73 73 73 73 73 73 73 73 73 73 73
60 58 49 44 47 55 55 60 60 55 56 57 57 55 57 65 68 71 73 71 72 70 70 71 69 71 72 73 74 74 75 74 74 74 74 74 73 73 73 72 72 72 72 72 72 72 73 72 71
58 52 47 45 48 51 58 61 59 58 55 57 62 52 54 60 68 69 70 70 70 71 70 70 70 70 68 70 71 72 73 73 73 73 73 72 72 72 72 71 72 72 72 72 71 71 71 71 70
58 56 47 45 51 52 58 59 61 59 59 61 62 53 52 62 67 69 69 70 69 69 69 68 68 69 69 69 67 68 69 70 71 70 68 67 68 68 68 68 70 71 71 71 70 70 69 69 68
59 52 47 49 52 54 58 58 58 60 60 58 59 58 61 67 66 65 64 66 67 68 68 68 67 68 68 68 66 66 66 67 66 66 64 63 62 63 64 64 68 69 70 69 69 68 67 66 65
55 48 52 55 54 53 58 57 61 58 56 53 54 57 59 63 63 65 62 62 64 64 65 67 67 67 67 70 66 66 66 65 64 63 62 61 61 61 62 61 65 66 67 68 69 66 64 60 57
54 51 55 56 57 60 59 55 58 57 52 59 59 59 59 60 61 65 62 63 64 65 66 66 67 67 67 68 66 66 65 64 63 62 61 61 60 59 58 57 58 58 60 60 59 57 56 56 55
53 56 59 59 58 58 58 57 55 57 60 63 62 61 61 62 62 64 64 62 62 62 66 67 67 67 67 68 66 67 67 64 63 62 62 60 58 57 56 56 56 56 55 55 54 54 54 54 54
54 55 58 57 57 55 57 53 55 56 61 60 61 60 61 63 63 64 65 63 63 64 65 66 68 67 68 66 67 68 68 66 64 63 63 61 60 58 57 55 55 55 54 54 52 52 52 52 52
56 55 55 56 55 55 54 51 53 59 57 58 58 58 60 60 60 58 59 62 63 66 66 67 67 69 69 67 67 67 69 68 66 64 65 63 62 61 58 56 55 55 59 58 56 54 50 49 50
56 51 52 53 54 53 53 50 53 56 57 56 57 56 56 58 58 60 64 65 66 66 68 66 68 68 68 68 66 67 67 68 67 65 67 66 64 61 60 58 57 55 58 57 55 53 51 49 52
50 49 43 51 54 53 52 47 54 56 51 57 54 53 55 57 59 61 63 64 63 64 64 67 69 67 67 68 67 67 66 66 68 67 65 66 65 63 61 60 60 59 58 57 55 53 51 51 51
45 40 41 48 54 51 49 47 55 54 55 55 54 55 55 56 58 59 60 64 65 65 66 66 67 67 66 66 67 66 66 66 66 67 66 65 65 64 62 61 61 58 57 56 55 52 52 49 47
41 39 43 42 50 48 44 47 53 55 51 55 54 55 55 56 60 63 62 63 65 65 66 67 67 67 67 65 65 64 65 65 66 67 66 66 65 63 62 62 60 58 56 54 52 52 51 50 48
47 44 42 45 50 48 47 46 51 55 52 51 53 53 54 55 64 60 61 61 59 60 61 64 64 67 66 61 62 62 62 63 63 65 66 67 66 64 63 61 59 57 55 54 52 48 47 47 47
45 43 42 45 48 47 45 47 51 52 54 55 55 54 54 54 57 61 60 57 57 64 62 63 64 66 65 68 67 66 64 59 63 61 63 65 65 65 64 61 58 56 55 52 52 52 47 46 48
44 43 42 44 44 43 40 41 45 51 50 54 55 55 55 56 57 58 58 57 55 57 59 63 63 64 66 67 60 54 54 53 54 54 60 63 64 64 63 62 59 56 56 52 52 51 50 46 46
43 48 46 44 41 36 41 32 40 48 53 53 56 51 54 54 55 57 58 57 55 58 59 62 63 62 63 63 62 62 62 60 61 64 59 55 59 63 63 61 59 57 56 54 52 53 51 50 44
46 47 45 43 38 34 35 33 39 42 48 52 55 53 55 55 52 55 58 58 58 55 54 55 56 58 61 61 62 61 61 62 54 51 53 52 54 57 60 60 58 57 56 55 54 52 51 51 49
50 46 43 38 37 30 36 37 36 43 48 49 54 55 55 55 55 55 55 56 55 52 50 50 52 53 55 58 58 58 59 55 48 48 50 49 50 55 54 55 57 57 56 55 54 53 51 51 51
45 41 30 28 26 28 34 32 39 48 51 51 53 53 52 51 52 52 53 53 52 52 50 49 50 51 51 53 54 53 56 52 51 50 51 47 48 49 53 53 53 55 56 56 55 52 51 51 50
42 41 31 25 23 28 33 32 43 48 53 54 52 52 49 51 51 51 50 50 51 51 51 49 49 50 49 50 50 50 52 53 53 50 50 50 51 51 49 50 53 53 54 54 54 52 51 51 49
41 37 44 34 18 24 33 38 49 52 49 51 51 52 53 53 52 52 53 52 51 50 51 50 49 49 49 49 48 49 49 50 51 49 50 50 49 48 46 49 49 51 53 53 54 51 49 49 48
44 47 36 32 22 20 29 32 39 46 48 50 50 51 53 54 54 54 52 52 52 50 50 49 49 49 49 48 48 48 48 49 48 48 48 49 48 46 45 47 49 49 50 51 51 51 49 48 47
40 38 38 39 32 25 21 33 44 46 48 47 48 50 50 51 52 52 53 52 50 49 49 49 48 48 48 48 47 47 46 47 47 48 49 49 47 45 45 44 46 47 47 48 48 49 48 46 46
40 40 40 31 29 28 29 33 48 47 47 47 47 50 50 50 51 51 50 50 49 50 49 48 48 47 48 48 47 47 47 46 46 48 49 46 47 43 45 43 43 44 45 46 46 46 47 44 44
MSLP
1013.26 1013.08 1013.08 1014.12 1016.11 1016.75 1016.90 1016.78 1016.22 1015.95 1015.87 1015.80 1015.86 1016.13 1017.20 1017.78 1018.28 1019.11 1018.55 1018.80 1018.93 1019.63 1020.01 1020.25 1020.40 1020.38 1020.69 1020.83 1020.93 1021.18 1021.41 1021.45 1021.52 1021.58 1021.51 1021.53 1021.56 1021.68 1021.88 1021.96 1022.10 1022.29 1022.33 1022.20 1022.19 1022.27 1022.17 1022.13 1022.45
1013.44 1013.10 1013.86 1015.29 1016.49 1017.38 1017.61 1016.70 1016.48 1015.82 1015.70 1015.80 1016.06 1016.68 1017.16 1018.00 1018.09 1018.64 1018.95 1018.85 1019.03 1019.58 1019.97 1020.26 1020.37 1020.64 1020.77 1020.98 1021.21 1021.41 1021.58 1021.74 1021.82 1021.88 1021.86 1021.84 1021.85 1021.96 1022.10 1022.30 1022.42 1022.59 1022.67 1022.60 1022.51 1022.55 1022.69 1022.66 1022.84
1013.52 1013.40 1015.13 1015.78 1016.88 1017.23 1017.00 1016.65 1016.20 1015.97 1015.74 1015.72 1016.35 1016.81 1017.32 1017.92 1018.15 1018.39 1018.39 1018.68 1019.22 1019.68 1020.02 1020.27 1020.45 1020.68 1020.87 1021.13 1021.34 1021.60 1021.85 1022.00 1022.06 1022.09 1022.22 1022.22 1022.33 1022.37 1022.49 1022.57 1022.74 1022.86 1022.97 1022.94 1022.90 1022.99 1023.09 1023.08 1023.33
1013.65 1014.66 1015.95 1016.15 1016.47 1016.09 1015.97 1016.22 1016.07 1016.08 1015.91 1015.72 1016.33 1017.39 1017.40 1017.41 1017.68 1017.84 1018.22 1018.71 1019.29 1019.76 1020.07 1020.34 1020.57 1020.76 1020.99 1021.34 1021.63 1021.75 1021.97 1022.24 1022.27 1022.37 1022.52 1022.52 1022.65 1022.82 1022.93 1023.03 1023.02 1023.19 1023.37 1023.36 1023.37 1023.49 1023.32 1023.55 1023.74
1014.11 1015.38 1016.22 1016.41 1016.08 1015.75 1015.74 1015.84 1015.95 1016.08 1015.97 1016.02 1016.26 1017.46 1017.76 1017.51 1017.36 1017.68 1018.18 1018.51 1019.20 1019.75 1020.10 1020.43 1020.65 1020.91 1021.21 1021.54 1021.79 1021.97 1022.12 1022.46 1022.53 1022.72 1022.81 1022.85 1022.91 1023.13 1023.30 1023.39 1023.48 1023.65 1023.76 1023.75 1023.84 1023.90 1023.83 1024.06 1024.18
1015.01 1015.73 1016.41 1016.65 1016.10 1015.70 1015.67 1015.64 1015.93 1016.08 1016.27 1016.29 1016.72 1017.45 1017.92 1017.59 1017.74 1017.93 1018.19 1018.71 1018.94 1019.57 1020.10 1020.44 1020.72 1021.02 1021.32 1021.59 1021.82 1022.11 1022.30 1022.59 1022.76 1022.86 1023.02 1023.17 1023.17 1023.44 1023.58 1023.75 1023.89 1024.08 1024.25 1024.26 1024.32 1024.29 1024.36 1024.52 1024.78
1014.98 1016.18 1016.37 1016.25 1016.14 1015.64 1015.39 1015.31 1015.62 1015.87 1016.37 1016.24 1016.64 1017.92 1018.18 1017.95 1017.78 1017.91 1018.33 1018.63 1019.13 1019.52 1020.03 1020.44 1020.78 1021.12 1021.34 1021.60 1021.88 1022.09 1022.27 1022.64 1022.83 1022.95 1023.09 1023.27 1023.48 1023.59 1023.89 1024.00 1024.15 1024.43 1024.42 1024.72 1024.80 1024.83 1025.02 1025.14 1025.35
1014.75 1015.66 1016.18 1016.09 1015.91 1015.45 1015.02 1015.21 1015.16 1015.71 1015.96 1015.98 1016.20 1017.41 1018.31 1017.80 1017.77 1018.04 1018.54 1018.94 1019.30 1019.61 1019.87 1020.31 1020.75 1021.14 1021.49 1021.79 1021.97 1022.12 1022.33 1022.73 1022.85 1023.08 1023.30 1023.40 1023.76 1023.89 1024.28 1024.29 1024.41 1024.55 1024.63 1024.91 1025.12 1025.28 1025.42 1025.65 1025.80
1014.65 1015.59 1016.13 1015.63 1015.57 1015.11 1014.97 1014.99 1015.37 1015.33 1015.77 1016.02 1016.49 1016.77 1016.57 1017.07 1017.83 1018.30 1018.84 1019.28 1019.47 1019.70 1019.93 1020.19 1020.59 1020.97 1021.33 1021.69 1022.01 1022.31 1022.53 1022.87 1023.10 1023.29 1023.66 1023.70 1024.13 1024.38 1024.58 1024.65 1024.73 1024.93 1025.09 1025.38 1025.55 1025.70 1025.85 1025.97 1026.11
1015.00 1015.85 1015.73 1015.19 1015.04 1015.04 1015.03 1014.94 1015.23 1015.63 1016.06 1016.47 1016.75 1016.91 1016.97 1017.31 1017.84 1018.27 1018.71 1018.99 1019.30 1019.55 1019.96 1020.03 1020.42 1020.81 1021.23 1021.60 1022.07 1022.41 1022.68 1023.00 1023.36 1023.61 1024.00 1024.19 1024.47 1024.73 1024.89 1024.99 1025.07 1025.27 1025.50 1025.75 1025.93 1026.20 1026.37 1026.49 1026.65
1014.93 1015.47 1015.32 1015.25 1014.99 1014.89 1015.20 1015.29 1015.39 1015.73 1016.44 1016.24 1016.57 1017.18 1017.54 1017.72 1017.99 1018.22 1018.35 1018.48 1018.72 1019.02 1019.53 1019.89 1020.10 1020.58 1021.06 1021.46 1022.04 1022.48 1022.85 1023.16 1023.47 1023.80 1024.08 1024.33 1024.70 1024.99 1025.25 1025.44 1025.60 1025.74 1025.88 1026.10 1026.35 1026.53 1026.70 1026.86 1027.11
1014.90 1015.20 1015.06 1015.33 1015.18 1015.12 1015.36 1015.51 1015.70 1015.91 1015.55 1015.29 1015.85 1016.64 1017.41 1017.87 1017.92 1017.85 1018.05 1018.28 1018.54 1018.83 1019.01 1019.32 1019.53 1020.11 1020.57 1021.04 1021.67 1022.11 1022.54 1023.07 1023.53 1023.86 1024.11 1024.44 1024.94 1025.22 1025.47 1025.67 1025.86 1026.04 1026.30 1026.58 1026.78 1026.96 1027.16 1027.28 1027.35
1014.76 1015.24 1015.16 1015.43 1015.37 1015.37 1015.46 1015.54 1015.88 1015.71 1015.53 1015.52 1015.93 1016.81 1017.30 1017.50 1017.60 1017.59 1017.46 1017.83 1018.02 1018.39 1018.50 1018.68 1018.90 1019.39 1019.93 1020.58 1021.08 1021.51 1021.95 1022.57 1023.13 1023.57 1023.89 1024.28 1024.71 1025.10 1025.43 1025.78 1026.02 1026.14 1026.33 1026.65 1027.03 1027.23 1027.40 1027.67 1027.86
1014.94 1015.35 1015.31 1015.54 1015.42 1015.52 1015.63 1015.93 1015.98 1015.27 1015.19 1015.97 1016.34 1016.64 1017.06 1017.25 1017.16 1017.54 1017.83 1017.64 1017.70 1017.77 1017.87 1018.10 1018.42 1018.68 1019.25 1019.80 1020.31 1020.74 1021.24 1021.76 1022.45 1023.00 1023.41 1023.86 1024.16 1024.57 1025.02 1025.54 1026.01 1026.27 1026.20 1026.39 1026.87 1027.17 1027.53 1027.88 1027.96
1015.38 1015.68 1015.80 1015.69 1015.77 1015.93 1016.11 1016.20 1015.86 1015.74 1015.58 1016.24 1016.61 1016.78 1016.99 1017.04 1017.19 1016.94 1016.53 1016.99 1017.04 1016.96 1017.23 1017.54 1017.82 1018.10 1018.62 1019.03 1019.58 1020.09 1020.58 1021.06 1021.59 1022.19 1022.59 1023.05 1023.50 1024.02 1024.35 1024.95 1025.48 1025.86 1026.21 1026.36 1026.79 1027.40 1027.78 1028.14 1028.30
1016.04 1016.35 1016.58 1016.12 1016.09 1016.32 1016.71 1016.52 1015.92 1015.69 1016.09 1016.38 1016.88 1017.14 1017.15 1016.97 1016.63 1016.47 1016.38 1016.25 1016.56 1016.85 1016.97 1017.10 1017.30 1017.63 1017.99 1018.28 1018.89 1019.44 1019.94 1020.51 1020.83 1021.44 1022.07 1022.40 1022.82 1023.34 1023.91 1024.40 1024.75 1025.23 1025.77 1026.21 1026.62 1027.13 1027.83 1028.15 1028.42
1017.19 1017.14 1016.99 1016.47 1016.27 1016.54 1017.08 1017.10 1016.03 1015.88 1016.20 1016.77 1016.89 1017.07 1017.03 1016.60 1016.27 1016.04 1015.86 1015.74 1015.75 1015.99 1016.40 1016.71 1016.90 1017.05 1017.48 1017.83 1018.31 1018.88 1019.31 1019.85 1020.19 1020.66 1021.17 1021.67 1022.13 1022.61 1023.08 1023.54 1024.02 1024.72 1025.39 1025.95 1026.29 1026.91 1027.27 1028.06 1028.60
1017.34 1017.35 1016.84 1016.60 1016.63 1016.96 1017.34 1017.39 1016.47 1015.88 1016.37 1016.66 1016.59 1016.55 1016.37 1016.04 1015.03 1014.71 1014.85 1015.06 1015.20 1015.28 1015.58 1015.90 1016.27 1016.61 1017.02 1017.56 1018.03 1018.52 1018.86 1019.11 1019.43 1019.77 1020.16 1020.75 1021.28 1021.90 1022.34 1022.76 1023.35 1024.04 1024.92 1025.64 1026.25 1026.66 1027.16 1027.67 1028.59
1016.81 1016.93 1016.78 1016.55 1016.63 1017.13 1017.40 1017.38 1016.97 1016.19 1015.97 1016.08 1016.19 1015.82 1015.61 1015.33 1013.92 1014.14 1014.04 1014.17 1014.54 1014.84 1015.16 1015.27 1015.74 1015.97 1016.60 1017.21 1017.75 1018.12 1018.25 1018.66 1018.94 1018.98 1019.34 1019.83 1020.33 1020.95 1021.63 1022.20 1022.86 1023.51 1024.22 1024.75 1025.55 1026.64 1027.35 1028.27 1028.56
1016.96 1017.04 1017.06 1016.99 1017.01 1017.58 1017.68 1017.33 1016.67 1016.29 1015.36 1014.98 1015.11 1014.95 1014.66 1014.48 1013.80 1013.38 1013.44 1013.76 1014.00 1013.93 1014.17 1014.66 1014.92 1015.23 1015.60 1016.15 1016.68 1017.20 1017.81 1018.28 1018.39 1018.70 1018.98 1019.22 1019.61 1020.06 1020.68 1021.36 1022.10 1022.98 1023.77 1024.75 1025.50 1025.63 1026.87 1027.61 1028.17
1016.89 1016.96 1017.15 1017.44 1017.70 1018.06 1018.34 1017.90 1016.73 1015.40 1014.87 1014.30 1014.02 1013.70 1013.83 1013.85 1013.58 1013.18 1013.35 1013.41 1013.45 1013.61 1013.52 1013.71 1013.86 1014.20 1014.69 1015.36 1016.35 1017.22 1017.82 1018.44 1018.55 1018.57 1018.68 1018.60 1018.92 1019.31 1019.82 1020.38 1021.20 1022.03 1022.78 1023.56 1024.34 1024.82 1025.40 1026.40 1027.06
1017.15 1016.91 1017.23 1017.85 1018.72 1019.20 1019.10 1019.01 1017.29 1015.76 1014.91 1014.34 1013.33 1013.69 1013.46 1013.38 1013.13 1013.00 1012.96 1012.98 1013.05 1012.75 1012.82 1012.88 1013.27 1013.73 1014.20 1014.85 1015.57 1016.16 1016.75 1017.25 1017.29 1017.64 1018.26 1018.64 1018.76 1018.91 1019.27 1019.60 1020.37 1021.00 1021.65 1022.50 1023.11 1023.89 1024.10 1025.07 1025.72
1017.27 1017.37 1017.91 1018.52 1019.56 1020.12 1020.04 1020.15 1017.29 1016.35 1015.15 1014.15 1013.53 1013.31 1013.38 1013.12 1013.00 1013.02 1012.93 1012.92 1012.66 1012.77 1012.87 1013.14 1013.31 1013.51 1013.88 1014.36 1014.81 1015.44 1016.05 1016.33 1016.91 1017.55 1018.02 1018.54 1018.87 1018.94 1018.95 1019.03 1019.41 1020.18 1020.79 1021.25 1021.94 1022.58 1023.84 1023.40 1024.47
1017.46 1018.15 1019.10 1020.00 1020.72 1021.02 1020.09 1019.89 1018.08 1016.34 1014.82 1013.96 1013.76 1013.79 1013.90 1013.85 1013.72 1013.68 1013.37 1013.31 1013.29 1013.00 1013.13 1013.39 1013.64 1013.98 1014.20 1014.44 1014.85 1015.20 1015.62 1016.38 1017.16 1017.66 1017.98 1018.20 1018.39 1018.65 1018.75 1018.81 1018.90 1019.26 1019.78 1020.26 1020.73 1021.09 1021.49 1022.48 1022.35
1017.98 1019.02 1020.53 1021.66 1022.04 1021.53 1020.45 1020.15 1017.75 1015.54 1014.42 1014.23 1014.54 1014.68 1014.61 1014.46 1014.40 1014.53 1014.34 1013.93 1013.82 1013.82 1013.68 1013.81 1014.08 1014.36 1014.52 1014.63 1014.81 1015.05 1015.34 1015.86 1016.29 1016.77 1017.27 1017.78 1018.10 1018.28 1018.37 1018.60 1018.75 1018.75 1018.90 1019.30 1019.88 1020.46 1020.75 1021.23 1021.74
1018.08 1018.73 1020.10 1021.47 1022.45 1021.97 1020.68 1019.08 1016.19 1014.96 1014.65 1014.60 1014.79 1015.17 1015.19 1015.07 1014.67 1014.58 1014.67 1014.29 1014.24 1014.31 1014.09 1014.06 1014.14 1014.32 1014.58 1014.67 1014.78 1014.99 1015.26 1015.59 1015.91 1016.27 1016.69 1017.04 1017.27 1017.40 1017.65 1017.97 1018.17 1018.37 1018.51 1018.68 1018.97 1019.37 1019.85 1020.15 1020.51
1018.36 1018.79 1019.46 1020.98 1022.97 1022.46 1020.33 1018.45 1016.30 1014.65 1014.85 1015.31 1015.56 1015.33 1015.08 1015.27 1015.04 1014.66 1014.44 1014.31 1014.39 1014.19 1014.18 1014.08 1014.10 1014.23 1014.47 1014.62 1014.70 1014.89 1015.08 1015.33 1015.52 1015.80 1016.11 1016.32 1016.54 1016.82 1017.07 1017.24 1017.57 1017.65 1017.88 1018.11 1018.42 1018.47 1018.69 1019.17 1019.55
1017.44 1018.15 1019.64 1021.05 1022.39 1022.27 1020.07 1018.74 1016.80 1015.78 1015.71 1015.89 1016.07 1016.10 1015.91 1015.79 1015.69 1015.29 1015.19 1014.85 1014.71 1014.56 1014.35 1014.19 1014.19 1014.24 1014.32 1014.54 1014.66 1014.72 1014.79 1014.95 1015.13 1015.37 1015.50 1015.67 1015.82 1016.09 1016.37 1016.59 1016.85 1017.07 1017.17 1017.38 1017.85 1017.91 1017.86 1018.19 1018.38
1017.94 1018.17 1019.07 1020.05 1021.15 1021.27 1020.26 1018.09 1015.95 1016.07 1016.32 1016.81 1016.91 1016.71 1016.49 1016.23 1016.08 1015.76 1015.31 1015.21 1015.33 1014.99 1014.83 1014.67 1014.54 1014.23 1014.04 1014.05 1014.16 1014.26 1014.46 1014.49 1014.59 1014.66 1014.64 1014.72 1014.97 1015.23 1015.57 1015.89 1016.25 1016.52 1016.73 1016.87 1017.07 1017.34 1017.45 1017.35 1017.60
1017.35 1017.74 1018.52 1019.92 1021.11 1020.79 1019.93 1017.40 1016.04 1016.34 1016.58 1016.62 1016.97 1016.92 1016.55 1016.01 1015.61 1015.56 1015.63 1015.53 1015.42 1015.25 1014.87 1014.68 1014.30 1014.32 1013.91 1013.58 1013.62 1013.64 1013.75 1013.85 1013.94 1013.90 1013.82 1014.29 1014.41 1014.63 1014.90 1015.18 1015.39 1015.61 1015.83 1016.03 1016.11 1016.28 1016.64 1016.87 1016.98
Wind_Speed
5 5 4 6 4 6 1 2 2 3 3 1 1 8 8 3 2 3 4 7 11 12 9 7 9 12 13 13 12 13 12 13 13 13 13 13 16 18 19 18 18 17 17 18 19 19 18 18 18
4 2 6 3 6 5 4 1 4 3 6 6 7 3 5 2 3 5 8 7 14 11 8 6 11 11 14 13 12 12 12 13 13 13 13 13 15 17 18 17 17 16 17 18 19 19 18 17 19
2 5 4 5 4 5 6 4 7 4 5 3 5 5 5 4 3 9 2 12 12 9 8 7 11 13 14 13 13 12 12 12 13 14 13 13 15 16 16 17 16 16 16 17 18 17 15 16 19
2 5 5 5 3 1 8 7 5 6 1 3 5 6 3 3 11 9 14 14 12 9 8 9 12 13 14 13 13 13 13 12 13 14 13 14 15 15 16 15 16 15 15 15 16 15 15 18 19
5 3 4 3 1 1 2 5 6 4 4 4 5 6 2 1 5 15 15 13 13 10 8 9 13 14 14 14 14 12 12 13 13 14 14 14 15 15 15 15 15 15 15 15 16 14 15 18 18
5 3 5 1 2 2 2 6 7 3 2 3 6 6 4 1 11 13 14 11 12 11 10 9 12 12 14 14 14 13 12 14 14 14 14 14 15 15 15 15 15 14 14 15 15 16 16 18 17
7 4 3 2 3 1 5 7 7 7 4 3 9 5 1 1 8 9 10 11 10 11 10 8 9 11 12 12 11 12 13 13 13 13 13 13 13 14 14 14 15 15 15 15 16 18 18 18 18
6 5 2 2 5 4 3 4 7 5 6 1 7 6 6 7 8 9 10 12 13 10 10 10 8 8 7 8 10 11 13 12 12 11 11 11 11 12 11 10 14 16 17 17 16 17 18 17 18
3 5 2 2 5 4 3 4 1 3 5 2 2 6 5 12 8 8 5 6 9 10 11 10 10 9 8 7 7 10 11 12 11 10 10 9 4 6 7 7 12 14 15 15 15 17 17 17 17
5 4 7 1 3 3 4 4 7 4 3 0 2 3 4 10 8 11 9 9 10 12 11 11 10 10 9 7 6 6 6 6 5 5 6 4 5 4 5 6 10 12 12 14 16 14 13 8 4
3 6 4 1 1 4 4 2 3 7 3 7 10 7 8 6 9 13 9 10 12 12 11 11 12 10 10 7 5 4 4 4 4 7 6 5 4 4 3 3 3 4 6 3 6 6 4 6 4
4 1 3 2 1 2 4 1 2 6 7 5 9 9 12 13 14 15 14 10 11 10 14 14 14 12 12 8 8 8 7 5 5 6 7 5 3 4 4 3 4 4 3 4 4 3 5 5 6
4 2 3 2 3 3 1 1 3 6 7 2 6 9 15 15 15 11 12 7 8 13 12 14 15 14 13 10 9 10 9 8 8 7 8 7 6 6 5 4 3 4 4 4 4 4 4 5 6
4 2 3 2 2 1 2 1 2 6 4 5 8 13 14 13 16 6 7 10 11 13 15 14 14 14 14 12 13 11 10 12 10 9 10 11 8 8 7 7 4 4 5 6 5 5 5 4 5
3 3 2 3 2 1 1 3 9 6 4 5 8 9 10 13 8 14 17 15 14 12 12 15 15 13 14 15 12 10 10 12 11 10 13 14 11 10 10 8 8 6 4 6 6 5 5 5 4
3 6 2 3 6 1 3 8 4 5 2 8 6 7 8 11 15 14 12 12 10 9 12 13 12 14 13 14 11 9 9 9 11 11 10 14 13 13 11 9 9 8 6 6 7 7 6 5 5
6 3 4 4 6 3 3 6 6 1 4 6 9 9 9 10 11 12 11 14 14 14 12 13 13 15 14 11 10 10 12 10 9 10 10 14 14 14 12 10 9 9 8 7 8 6 8 6 5
6 4 4 3 4 2 3 9 10 9 2 9 10 10 10 10 18 14 16 14 13 13 14 14 12 14 14 9 8 7 9 9 9 11 12 15 13 14 12 9 10 10 9 7 6 9 5 7 7
5 3 2 2 2 4 7 7 11 11 7 9 11 10 11 12 14 7 10 12 10 9 11 14 13 15 10 6 9 9 11 8 8 10 14 15 15 15 14 9 10 11 11 12 11 6 9 4 6
3 3 3 2 1 3 4 11 11 8 11 8 10 11 13 8 9 11 9 8 11 17 15 14 14 15 14 11 10 8 7 4 8 6 9 14 16 16 15 13 12 12 10 11 10 12 7 3 9
3 5 4 4 2 2 3 10 6 5 4 6 9 10 7 11 11 9 7 9 8 10 13 15 17 16 15 14 4 4 4 3 2 4 8 10 14 16 17 15 13 13 12 11 14 14 14 8 11
5 4 2 3 4 4 3 8 6 6 9 8 12 5 9 9 7 7 8 7 9 14 10 13 12 13 14 12 11 14 12 12 10 10 6 5 6 11 14 14 13 14 12 13 14 13 15 10 13
6 3 2 2 3 2 4 1 9 4 8 10 10 4 6 6 0 3 6 7 8 6 7 6 5 8 10 13 14 12 13 9 2 3 5 5 5 5 8 12 14 13 11 13 16 16 15 13 10
7 6 8 5 3 3 7 7 7 4 5 1 4 6 8 9 9 9 7 8 7 5 3 3 6 4 5 9 10 13 14 8 4 4 5 5 5 7 6 7 11 12 12 13 14 17 19 16 15
5 6 2 4 3 7 1 2 9 8 5 2 6 7 9 8 8 8 10 10 8 9 6 1 3 4 5 7 8 9 10 9 11 9 8 6 6 5 10 9 7 9 12 13 13 15 16 17 15
7 8 7 7 4 5 2 6 7 4 5 6 5 6 4 8 6 7 6 5 7 8 8 4 3 6 6 7 8 7 7 7 7 7 6 7 8 8 7 10 11 11 10 11 12 11 13 16 15
5 5 6 7 2 4 5 6 10 8 2 5 6 7 9 8 7 7 8 6 4 1 4 4 4 5 5 7 6 7 7 8 8 7 7 7 8 6 8 10 11 12 14 13 14 11 13 14 14
5 7 4 3 3 5 4 4 7 5 7 11 10 8 8 9 10 9 8 8 6 4 3 3 4 5 5 6 5 5 7 7 6 6 10 9 8 8 9 11 12 13 14 14 13 13 12 14 12
3 3 2 5 5 6 1 7 7 3 10 8 5 7 6 7 7 7 7 7 8 8 8 7 6 6 6 6 6 7 7 7 7 9 10 11 8 10 11 11 12 13 13 12 12 14 12 15 15
3 6 6 6 5 3 4 7 4 11 8 6 6 7 7 5 7 6 5 6 6 8 8 8 6 7 7 6 6 7 7 7 8 10 10 7 10 8 10 10 11 12 12 12 13 15 13 14 16
Wind_Direction
348 334 76 48 55 63 92 154 208 110 71 332 98 106 127 102 112 196 157 160 136 153 159 159 145 127 120 111 101 102 106 106 105 104 100 96 102 100 95 93 92 91 94 100 99 91 84 96 101
353 36 48 73 87 75 281 203 156 185 175 143 90 89 59 107 105 111 136 168 151 151 151 163 150 143 129 120 114 114 114 114 112 109 109 104 102 103 101 98 97 98 98 104 103 91 79 91 99
278 51 81 96 117 155 174 209 165 176 174 142 96 57 135 147 89 144 181 146 142 148 150 156 145 146 133 129 124 122 120 119 117 114 114 112 103 104 102 103 102 104 105 108 103 88 83 102 100
79 23 24 83 125 236 170 183 187 146 109 84 119 79 40 212 155 176 143 144 140 148 151 151 150 145 137 133 135 132 126 123 120 120 118 118 110 105 104 106 107 107 107 108 99 84 87 109 106
38 64 60 84 209 313 74 177 167 145 158 144 138 164 96 148 129 139 143 148 149 153 148 154 150 148 145 145 145 139 136 131 126 126 122 121 114 111 112 111 110 109 108 110 97 89 102 105 103
46 94 59 93 268 85 167 188 158 110 180 169 79 111 176 140 138 155 147 153 152 149 154 158 155 154 153 153 155 144 145 135 134 131 128 126 120 119 117 116 115 112 110 107 97 92 107 102 101
117 86 178 174 193 251 192 154 136 145 159 221 158 101 270 252 171 151 140 142 143 147 150 154 158 161 155 155 162 150 143 140 140 137 133 126 125 123 123 124 121 118 114 109 99 95 100 100 98
106 96 108 224 183 212 198 136 141 138 206 81 152 170 187 222 180 137 135 150 149 153 155 156 157 160 159 164 162 146 143 146 141 135 128 120 118 120 126 128 130 126 125 116 111 107 103 102 89
99 70 158 220 171 186 199 130 51 118 118 79 12 154 223 161 152 130 124 147 158 158 163 163 160 163 161 158 161 150 148 142 135 129 129 113 115 121 121 129 126 127 127 123 119 108 107 97 89
87 107 205 203 150 196 198 154 154 120 110 349 23 17 94 137 161 171 163 170 173 165 172 170 165 167 161 166 155 155 150 146 140 130 130 112 114 118 116 119 125 130 127 129 120 103 99 84 73
146 169 208 168 98 126 190 182 184 119 233 207 193 183 165 163 177 185 191 182 182 172 172 177 169 169 167 167 161 159 152 147 144 149 143 134 123 118 111 107 104 117 127 113 98 93 85 95 93
122 111 140 178 54 107 162 307 214 185 221 218 192 169 168 176 187 192 199 187 179 180 180 178 175 174 177 169 172 175 171 161 163 169 152 139 134 136 140 139 148 139 130 115 108 104 107 97 97
118 175 99 151 117 120 150 182 260 246 237 333 130 157 182 188 197 206 206 199 177 188 189 182 178 179 181 175 177 180 181 178 176 171 167 159 162 165 155 150 157 168 145 144 132 124 118 109 102
144 122 141 213 163 137 144 203 13 273 230 200 158 183 191 194 203 196 209 206 201 195 193 186 186 183 180 182 184 182 185 186 177 179 180 178 175 174 169 163 170 186 182 149 145 142 130 121 121
112 130 13 228 202 247 119 283 233 273 334 213 200 208 207 218 193 211 207 213 202 206 195 191 190 183 184 187 181 180 182 185 185 186 187 187 179 177 173 174 179 181 179 145 133 113 105 102 100
91 52 81 282 140 246 85 271 289 351 228 248 236 240 229 234 220 220 216 212 211 200 198 199 197 192 189 187 185 183 181 188 191 190 190 191 185 180 178 180 186 181 162 162 154 148 139 132 131
11 180 204 303 197 133 142 258 252 190 27 292 261 253 233 248 246 234 224 218 207 208 204 203 199 198 193 189 184 185 184 189 189 190 192 195 191 185 183 186 184 168 167 173 165 158 155 152 133
190 206 227 222 211 147 190 257 283 285 230 254 264 259 252 233 240 223 222 218 215 208 206 206 200 203 197 184 182 182 187 193 190 195 198 194 193 190 190 187 179 171 169 168 172 168 155 151 143
138 142 180 239 190 156 229 258 264 278 291 263 258 253 254 244 257 231 232 220 211 214 201 205 196 204 184 179 186 195 197 192 197 201 198 199 199 193 194 189 177 175 177 180 171 143 141 134 133
208 180 250 295 83 171 279 269 261 251 256 237 247 253 247 252 264 262 230 216 208 214 207 204 201 198 197 199 203 206 195 193 203 196 197 200 200 198 196 189 183 182 177 174 178 169 161 121 182
165 164 196 204 346 300 338 295 311 293 252 273 254 249 257 244 259 275 280 232 227 218 206 204 202 198 200 198 149 79 63 52 162 196 202 205 200 199 200 191 184 180 182 182 185 178 178 174 194
184 207 185 158 80 240 50 286 305 271 293 285 285 321 279 269 265 268 276 271 227 229 216 213 206 196 196 182 183 196 205 211 217 219 208 187 195 200 198 188 185 184 186 190 190 192 188 180 183
220 149 135 97 112 31 329 67 275 303 278 288 303 324 30 13 231 318 309 297 285 271 234 238 207 189 185 185 191 197 212 219 170 152 169 177 194 205 205 192 183 188 194 194 191 190 207 193 197
143 76 44 53 72 297 220 167 291 226 220 346 18 45 18 6 3 354 339 351 346 353 292 212 187 191 177 187 194 200 212 199 159 172 195 195 194 207 208 201 194 194 197 200 198 199 196 208 202
78 82 352 347 358 230 8 121 241 261 233 309 64 23 10 9 18 1 355 342 341 343 343 298 207 219 196 195 198 199 208 188 198 193 202 185 198 211 219 200 205 208 206 208 205 205 204 204 214
183 153 157 201 206 274 294 241 246 248 263 41 62 113 60 8 353 5 336 351 349 347 342 337 227 229 208 206 216 208 206 205 211 202 199 208 210 213 192 202 217 220 222 216 212 206 211 211 214
194 192 178 101 39 51 232 292 305 327 54 94 78 26 18 355 347 354 350 9 354 313 249 252 259 266 242 232 215 211 207 210 207 201 203 211 210 204 195 200 209 223 228 230 227 216 208 212 212
153 166 86 3 157 258 270 251 223 245 63 50 32 6 346 336 339 353 347 344 337 310 298 285 264 254 260 255 242 231 221 216 207 199 213 216 209 197 196 205 212 221 224 221 227 229 215 212 214
141 167 102 125 151 177 246 260 222 103 106 95 31 347 343 342 343 331 325 328 329 327 329 316 283 251 243 233 235 229 232 222 215 218 220 218 210 201 206 204 212 219 222 219 222 230 226 218 216
155 174 153 135 231 237 159 253 123 121 123 102 25 357 340 337 330 317 300 297 296 294 294 277 287 277 257 242 232 232 229 223 229 234 234 218 222 209 212 206 210 213 217 215 217 224 226 222 219